This is the latest recevied weather packets stored in our database for station/object WB8ZGM-13. If no packets are shown the sender has not sent any weather packets the latest 10 day(s).
| Time | Temp. | Humidity | Pressure | Rain* | Wind** | Luminosity | Snow |
|---|---|---|---|---|---|---|---|
| 1777795391 | 3.33° C | 99% | 1002.2 hPa | 0 mm | - | - | - |
| 1777794461 | 3.33° C | 99% | 1002.2 hPa | 0 mm | - | - | - |
| 1777793531 | 3.89° C | 99% | 1002.2 hPa | 0 mm | - | - | - |
| 1777792601 | 3.89° C | 99% | 1002.2 hPa | 0 mm | - | - | - |
| 1777791671 | 3.89° C | 99% | 1002 hPa | 0 mm | - | - | - |
| 1777790771 | 4.44° C | 99% | 1002 hPa | 0 mm | - | - | - |
| 1777789841 | 3.89° C | 99% | 1002.1 hPa | 0 mm | - | - | - |
| 1777788911 | 4.44° C | 99% | 1002.2 hPa | 0 mm | - | - | - |
| 1777788011 | 4.44° C | 98% | 1002.1 hPa | 0 mm | - | - | - |
| 1777787081 | 4.44° C | 98% | 1002.1 hPa | 0 mm | - | - | - |
| 1777786151 | 5° C | 98% | 1002.1 hPa | 0 mm | - | - | - |
| 1777785221 | 5° C | 97% | 1001.8 hPa | 0 mm | - | - | - |
| 1777784291 | 5.56° C | 97% | 1001.8 hPa | 0 mm | - | - | - |
| 1777783361 | 5.56° C | 97% | 1001.7 hPa | 0 mm | - | - | - |
| 1777782431 | 6.11° C | 98% | 1001.6 hPa | 0 mm | - | - | - |
| 1777781501 | 6.11° C | 97% | 1001.6 hPa | 0 mm | - | - | - |
| 1777780571 | 6.67° C | 95% | 1001.5 hPa | 0 mm | - | - | - |
| 1777779641 | 6.67° C | 95% | 1001.5 hPa | 0 mm | - | - | - |
| 1777778711 | 7.22° C | 96% | 1001.4 hPa | 0 mm | - | - | - |
| 1777777781 | 7.78° C | 93% | 1001.3 hPa | 0 mm | - | - | - |
| 1777776881 | 8.33° C | 94% | 1001.4 hPa | 0 mm | - | - | - |
| 1777775951 | 8.33° C | 92% | 1001.2 hPa | 0 mm | - | - | - |
| 1777775021 | 8.89° C | 90% | 1001.1 hPa | 0 mm | - | - | - |
| 1777774091 | 9.44° C | 89% | 1001 hPa | 0 mm | - | - | - |
| 1777773161 | 10° C | 89% | 1000.7 hPa | 0 mm | - | - | - |
* Rain latest hour (hover to see other rain measurements)
** Current wind speed in m/s (hover to see current wind gust speed)